This is the latest recevied weather packets stored in our database for station/object KB7KFC-3. If no packets are shown the sender has not sent any weather packets the latest 10 day(s).
| Time | Temp. | Humidity | Pressure | Rain* | Wind** | Luminosity | Snow |
|---|---|---|---|---|---|---|---|
| 1777310426 | 22.78° C | 24% | 1015.7 hPa | 0 mm | - | - | - |
| 1777310247 | 22.78° C | 25% | 1015.7 hPa | 0 mm | - | - | - |
| 1777310067 | 22.78° C | 23% | 1015.7 hPa | 0 mm | - | - | - |
| 1777309887 | 22.78° C | 26% | 1015.7 hPa | 0 mm | - | - | - |
| 1777309706 | 21.67° C | 28% | 1015.7 hPa | 0 mm | - | - | - |
| 1777309526 | 21.67° C | 25% | 1015.6 hPa | 0 mm | - | - | - |
| 1777309347 | 22.22° C | 25% | 1015.7 hPa | 0 mm | - | - | - |
| 1777309166 | 22.22° C | 25% | 1015.7 hPa | 0 mm | - | - | - |
| 1777308986 | 22.22° C | 28% | 1015.7 hPa | 0 mm | - | - | - |
| 1777308807 | 22.22° C | 25% | 1015.7 hPa | 0 mm | - | - | - |
| 1777308627 | 22.22° C | 26% | 1015.7 hPa | 0 mm | - | - | - |
| 1777308447 | 22.22° C | 26% | 1015.7 hPa | 0 mm | - | - | - |
| 1777308267 | 21.67° C | 26% | 1015.7 hPa | 0 mm | - | - | - |
| 1777308086 | 21.67° C | 25% | 1015.7 hPa | 0 mm | - | - | - |
| 1777307906 | 21.67° C | 27% | 1015.7 hPa | 0 mm | - | - | - |
| 1777307726 | 21.67° C | 25% | 1015.7 hPa | 0 mm | - | - | - |
| 1777307547 | 21.67° C | 26% | 1015.7 hPa | 0 mm | - | - | - |
| 1777307367 | 21.67° C | 26% | 1015.7 hPa | 0 mm | - | - | - |
| 1777307185 | 21.11° C | 27% | 1015.6 hPa | 0 mm | - | - | - |
| 1777307005 | 21.67° C | 26% | 1015.6 hPa | 0 mm | - | - | - |
| 1777306825 | 21.67° C | 27% | 1015.6 hPa | 0 mm | - | - | - |
| 1777306645 | 21.11° C | 26% | 1015.6 hPa | 0 mm | - | - | - |
| 1777306465 | 21.11° C | 25% | 1015.5 hPa | 0 mm | - | - | - |
| 1777306287 | 21.11° C | 28% | 1015.5 hPa | 0 mm | - | - | - |
| 1777306107 | 21.11° C | 26% | 1015.5 hPa | 0 mm | - | - | - |
* Rain latest hour (hover to see other rain measurements)
** Current wind speed in m/s (hover to see current wind gust speed)